GFSSE_sfc_wetblb_129.txt.gz
Wetbulb
71.19 73.04 75.68 74.95 74.49 74.72 74.88 74.75 74.26 73.93 73.76 75.11 76.22 77.12 77.18 76.83 77.54 77.69 77.65 78.10 77.94 77.99 77.39 77.11 77.15 76.78 76.03 76.46 76.89 76.69 76.80 77.15 77.40 76.81 76.76 76.44 76.15 76.63 76.69 76.38 75.82 74.23 76.02
72.73 73.75 75.76 75.29 74.86 74.94 75.19 75.13 75.15 75.26 75.44 75.66 76.29 77.07 77.29 77.54 77.25 77.17 77.28 77.58 78.36 77.54 77.15 77.11 77.04 77.02 76.34 76.08 76.13 76.19 75.88 76.31 77.54 77.38 77.11 76.72 76.68 76.69 76.80 76.24 75.93 75.25 75.78
72.42 73.34 74.23 76.05 75.35 75.18 75.93 75.96 76.33 75.56 76.03 76.30 76.63 77.40 77.50 77.23 77.25 77.16 77.31 77.38 77.60 77.25 76.69 76.68 76.84 76.81 76.54 76.28 76.13 75.92 75.83 76.37 77.26 76.61 76.49 74.23 73.78 75.94 76.15 76.28 76.42 76.26 76.10
72.33 72.82 74.40 76.71 76.30 76.34 76.43 76.52 76.24 75.81 76.14 77.17 77.42 77.75 77.82 77.56 77.26 77.18 77.36 77.28 77.28 77.64 76.17 75.28 75.20 75.85 75.98 76.06 76.09 76.21 76.19 77.25 77.76 77.03 71.57 72.94 74.33 76.17 76.15 76.21 75.94 75.92 75.71
72.19 73.76 74.89 77.12 76.60 76.66 76.77 76.95 76.64 76.86 76.75 77.25 77.01 77.56 77.52 77.74 77.47 77.12 76.88 77.11 77.12 77.19 77.30 76.60 75.28 74.05 74.28 74.64 74.72 74.86 75.47 77.00 76.14 72.55 69.85 71.86 71.83 74.42 74.45 74.45 75.16 75.76 75.92
72.93 74.46 76.80 77.98 77.17 77.19 76.96 77.22 77.41 77.35 77.16 77.30 77.29 77.58 77.64 77.10 77.11 77.02 76.94 76.82 76.95 77.10 76.99 76.49 75.99 74.56 73.18 73.19 72.80 73.59 74.47 75.58 73.57 69.77 69.88 72.66 71.56 74.09 73.73 73.79 73.59 73.71 74.12
72.36 74.41 75.60 78.20 78.12 78.03 77.37 77.39 77.34 77.64 77.61 77.29 77.95 77.75 77.23 77.10 77.11 77.02 77.19 76.94 76.83 76.72 76.44 76.14 76.11 74.59 73.67 72.32 72.48 73.58 75.86 78.03 71.03 71.69 71.46 71.17 71.68 74.48 73.95 73.75 73.66 73.67 73.47
72.91 74.25 74.49 77.49 78.10 78.10 77.51 77.35 77.27 77.24 77.59 77.27 77.86 77.80 77.64 77.28 77.45 78.39 77.11 76.83 76.75 76.69 76.69 75.94 75.20 74.51 73.51 73.11 73.35 74.59 75.64 76.37 72.42 72.05 72.47 72.80 75.15 74.36 73.92 73.72 73.42 73.17 73.03
71.84 71.79 72.22 72.76 75.24 77.13 78.15 77.32 77.40 77.21 77.21 77.62 77.92 77.72 78.06 77.29 77.60 77.52 77.88 77.42 76.84 76.59 76.58 76.62 76.06 75.25 74.81 74.01 74.08 74.95 74.53 75.94 69.04 70.17 70.83 70.43 76.18 74.38 74.37 73.97 73.57 73.35 73.16
71.32 71.68 71.09 72.05 72.43 73.58 74.65 77.27 77.39 77.16 77.20 77.35 77.47 77.28 77.42 77.41 77.11 77.03 77.71 78.19 76.98 76.70 76.56 76.44 76.36 76.35 75.84 75.63 76.13 76.32 75.19 75.66 69.61 72.26 73.21 73.36 74.30 73.02 72.88 72.96 73.01 73.03 73.16
71.76 71.91 71.71 72.54 71.73 71.86 73.62 75.90 77.15 77.34 77.50 77.91 76.62 76.83 77.08 73.56 73.61 74.91 75.87 77.22 76.19 76.50 76.44 76.48 76.60 76.73 76.64 76.67 76.73 76.93 75.56 72.56 68.08 71.19 72.25 75.06 74.98 73.71 73.24 73.26 73.36 73.54 73.75
69.28 70.19 71.08 72.03 71.90 71.40 74.27 73.86 73.87 74.88 73.86 73.52 71.80 70.87 70.67 72.91 72.62 73.64 75.28 76.28 76.53 77.20 76.73 77.81 77.53 77.25 77.05 74.55 74.18 76.39 74.10 68.99 66.82 68.22 70.35 74.76 75.29 74.61 74.56 74.55 74.21 74.44 74.67
69.10 71.24 72.53 70.93 71.19 71.25 71.40 72.13 73.15 73.08 73.71 73.01 68.58 67.14 71.78 71.83 71.39 71.91 71.29 67.40 70.21 75.81 73.78 75.54 76.23 75.22 74.25 73.92 74.37 73.12 72.68 65.96 66.27 67.23 71.24 75.18 75.85 75.38 75.80 75.77 75.88 75.98 76.38
68.81 70.18 71.50 70.69 70.37 71.86 73.46 72.96 72.62 72.43 71.11 72.06 72.51 73.19 68.91 65.83 69.37 70.57 71.39 68.56 70.04 71.95 72.53 72.20 72.55 69.15 72.90 73.14 73.29 70.24 67.89 66.51 65.96 67.18 71.12 75.54 76.01 75.97 75.44 75.79 76.11 76.30 76.55
69.23 70.96 71.60 72.49 72.44 71.87 70.77 70.90 71.42 73.14 71.09 70.95 72.50 72.79 71.38 64.98 67.28 70.76 72.80 71.90 71.64 72.07 71.88 71.76 71.49 71.52 71.19 71.17 71.49 70.46 70.53 68.03 67.47 68.28 68.88 75.94 75.96 76.12 76.34 75.91 76.28 76.62 76.94
70.22 70.70 72.04 72.61 72.72 73.16 73.12 70.62 71.43 71.63 70.49 72.91 71.52 70.40 71.19 71.12 71.65 72.70 70.87 71.24 70.90 71.34 71.32 71.32 71.40 71.20 70.18 71.12 70.40 71.70 71.68 72.33 71.22 70.44 70.14 71.84 76.31 76.53 77.10 77.56 77.62 77.59 77.16
70.27 71.07 70.57 71.59 71.66 70.93 70.24 70.77 69.24 69.75 72.91 71.17 71.34 71.98 73.46 72.44 68.91 71.05 72.52 72.38 69.51 71.57 72.45 72.74 72.26 72.60 70.38 71.43 70.26 71.29 72.01 72.43 72.67 72.38 71.48 71.46 73.37 77.13 77.34 78.34 78.11 77.42 77.41
70.72 70.28 70.46 72.46 70.60 70.67 69.13 69.32 71.91 71.80 72.29 71.49 65.97 69.32 73.54 71.75 72.40 71.09 70.74 72.26 75.44 75.53 74.58 72.71 71.98 72.13 69.18 69.69 69.74 70.26 71.05 72.55 72.42 72.77 73.34 72.86 72.49 73.28 75.91 78.17 77.99 77.24 76.65
70.39 70.42 71.18 69.81 70.03 71.26 71.55 73.93 72.31 70.50 71.72 71.47 72.02 72.17 70.63 68.61 70.21 70.76 69.76 71.21 74.73 73.70 71.07 72.97 72.74 72.29 71.45 69.93 70.51 70.21 71.08 71.59 72.48 74.44 72.31 72.85 73.37 73.65 73.29 75.72 77.43 77.61 77.86
70.95 71.00 71.26 71.53 70.95 70.25 72.18 70.62 71.99 70.66 72.81 73.10 73.05 72.12 69.40 68.89 66.28 66.52 69.50 73.20 72.40 71.87 70.96 73.55 72.58 73.70 73.39 73.05 73.44 71.21 70.58 71.41 72.02 72.44 71.56 73.18 72.54 73.46 73.96 73.66 74.52 75.61 77.86
70.78 70.59 71.07 71.23 70.08 70.84 70.44 67.02 69.12 69.69 72.17 71.44 71.53 74.34 72.36 67.72 67.43 69.79 73.05 70.52 70.11 72.97 72.87 73.03 73.40 73.82 72.92 72.35 70.77 71.22 70.45 70.75 69.05 67.95 68.13 69.83 70.50 70.53 70.36 70.69 69.53 71.32 76.40
69.94 70.82 71.85 71.22 72.18 71.37 71.56 70.89 71.81 69.83 71.52 71.76 73.39 72.69 72.92 73.68 73.75 72.33 73.57 72.30 71.82 69.78 71.48 73.62 73.82 73.67 73.19 71.60 68.56 68.72 63.55 66.07 67.62 67.40 67.80 70.24 69.46 69.90 70.21 69.91 71.58 71.40 74.28
69.82 71.09 71.33 71.36 71.60 71.42 71.58 72.05 70.73 72.55 70.27 70.25 68.96 71.69 71.48 72.78 72.48 72.71 72.91 71.89 66.11 66.80 68.09 70.45 74.14 73.82 71.93 73.19 72.46 66.92 62.84 60.36 63.61 66.54 67.42 68.61 67.41 68.50 68.96 69.49 69.79 70.98 74.00
69.68 71.53 70.83 71.55 70.96 71.41 72.04 71.52 68.20 68.13 68.63 68.33 70.21 72.20 71.67 72.80 72.18 72.08 73.13 72.67 67.21 63.96 66.59 72.23 75.33 74.70 72.90 67.04 70.13 69.99 66.05 64.85 60.93 59.75 65.36 66.05 67.71 67.45 69.58 69.62 68.67 70.76 71.02
70.99 71.54 71.10 71.73 71.84 71.69 71.92 71.76 70.85 69.64 71.41 72.20 71.22 71.69 71.68 73.07 72.71 73.26 72.90 72.87 73.24 72.70 72.14 73.31 73.79 74.34 70.92 64.83 64.94 66.65 67.62 66.83 65.15 61.59 60.48 62.27 65.59 67.17 68.74 67.89 68.54 67.91 71.03
70.84 72.44 72.35 71.81 71.67 72.40 71.72 71.99 70.73 69.93 69.47 70.47 70.84 69.99 71.79 70.58 71.76 72.20 73.36 73.00 73.60 71.02 69.99 73.28 73.17 74.44 73.88 65.22 65.75 68.29 67.05 66.72 65.55 63.71 62.94 63.75 63.04 65.35 68.09 67.28 67.76 68.46 69.57

GFSSE_sfc_wetblb_132.txt.gz
Wetbulb
71.08 72.52 75.01 75.09 74.99 74.88 74.43 73.81 73.56 74.12 75.24 75.75 76.63 76.27 76.44 76.60 76.78 77.70 77.92 77.07 77.35 77.16 77.07 76.88 76.23 76.57 76.86 76.74 76.83 76.83 76.72 76.73 76.74 76.65 76.33 76.20 75.85 75.95 76.15 75.99 75.78 74.47 75.66
71.58 72.93 75.56 74.78 75.22 75.27 74.99 74.39 74.36 74.58 76.00 76.52 76.80 77.06 77.29 76.90 77.00 76.82 77.76 76.66 77.19 77.19 77.24 76.68 76.07 76.05 76.36 76.26 76.00 76.40 76.62 76.95 77.08 76.69 76.53 76.79 76.81 76.40 75.93 75.86 75.89 74.66 76.03
71.50 72.80 73.59 75.59 75.14 75.18 75.10 74.79 74.74 75.23 75.57 76.64 76.74 76.90 77.23 77.22 77.24 77.28 77.26 77.24 77.13 77.18 77.01 76.85 76.21 76.50 76.21 76.13 75.86 75.66 75.91 76.66 76.31 75.96 75.48 72.79 73.28 76.04 75.93 76.18 76.53 75.95 75.73
71.90 72.29 73.04 75.78 76.21 75.43 75.42 75.31 75.16 75.95 76.19 76.31 76.97 77.02 77.23 77.16 77.11 77.07 77.17 77.25 75.83 75.72 75.17 76.10 76.51 76.31 76.07 75.90 75.55 75.55 76.07 76.04 76.96 75.75 72.30 73.61 73.95 76.28 75.89 75.95 75.76 75.69 75.45
71.90 73.06 73.66 76.18 76.64 75.92 75.75 75.70 75.51 76.22 76.77 76.73 76.54 76.89 77.20 77.10 77.15 76.90 77.14 76.68 76.29 75.55 74.64 74.44 74.86 75.30 75.62 75.45 74.79 74.69 76.35 78.04 76.27 72.63 71.33 71.10 71.17 74.10 75.49 75.98 75.12 75.31 74.80
72.77 73.37 76.02 76.73 76.51 76.63 76.51 76.57 76.31 76.79 76.93 77.42 77.03 77.11 77.18 76.93 76.85 76.96 76.76 76.79 76.62 76.10 75.88 75.22 74.10 73.86 74.00 73.95 73.28 73.53 74.70 74.92 73.74 70.74 71.20 72.17 70.17 73.57 73.51 73.77 74.31 74.60 74.65
72.87 74.20 74.80 77.24 76.61 76.94 76.97 77.10 76.92 77.03 77.34 77.50 77.32 77.23 77.13 76.97 76.68 76.71 76.68 76.48 76.24 76.00 75.61 75.44 74.67 73.20 72.65 72.33 72.67 73.66 77.16 74.03 69.87 69.66 69.91 70.00 70.95 73.91 73.58 73.49 73.25 72.94 72.82
73.44 74.30 74.70 76.77 77.06 76.72 76.97 77.14 77.22 77.47 77.52 77.23 77.00 76.92 76.81 76.81 77.17 76.85 76.72 76.52 76.25 75.92 74.86 74.17 73.89 73.28 73.05 72.58 73.10 76.04 76.91 75.36 73.40 72.18 71.94 71.50 73.80 73.84 73.28 73.03 72.89 72.72 72.68
73.34 72.93 73.24 74.25 75.98 77.51 77.17 77.01 77.42 77.46 77.40 77.53 77.27 77.13 77.10 77.06 76.87 76.88 76.69 76.47 76.28 76.03 75.80 75.02 74.23 73.95 74.01 74.03 74.64 75.91 76.16 74.81 69.84 70.95 72.47 72.03 75.54 73.51 73.42 72.84 72.91 72.81 72.67
71.17 71.44 70.87 72.00 73.50 74.28 74.76 76.90 76.64 77.35 77.59 77.54 77.11 76.98 76.90 76.85 76.72 76.53 76.72 77.61 75.66 75.58 75.61 75.39 75.70 76.15 76.10 76.14 76.37 76.70 76.06 74.16 67.92 69.66 69.81 70.06 74.38 72.63 73.21 73.49 73.19 73.40 73.66
70.01 69.70 70.54 71.04 72.04 72.75 73.96 75.43 76.84 76.87 77.26 77.08 76.84 76.61 76.67 72.78 73.31 74.53 75.30 76.17 75.69 75.66 75.63 75.94 76.05 76.37 76.68 76.85 77.49 77.10 76.33 71.40 69.72 71.40 71.87 74.23 74.56 73.21 72.76 72.88 73.14 73.49 73.72
69.03 70.01 70.83 70.95 70.77 72.24 75.06 73.71 73.63 74.64 74.02 73.08 72.15 71.75 71.01 72.11 71.94 74.14 74.74 76.28 76.22 76.64 76.67 77.31 77.35 77.50 77.16 74.38 73.46 75.35 73.91 71.20 67.67 69.63 71.14 75.23 74.85 74.41 73.90 74.00 74.28 74.43 74.76
69.47 70.68 71.47 70.78 70.76 69.76 72.32 72.56 72.93 72.54 72.22 69.09 66.51 67.57 70.84 72.04 70.65 71.40 70.03 66.43 67.68 72.71 73.81 74.58 75.18 74.78 73.89 73.11 73.41 72.62 72.41 65.69 65.50 67.00 69.64 74.92 74.96 75.24 75.45 75.63 75.71 75.84 76.06
69.46 67.62 70.35 70.29 69.79 69.88 71.29 71.65 71.72 71.97 72.10 71.43 70.44 71.87 67.31 66.55 68.98 69.16 69.86 69.75 69.57 70.04 71.03 71.88 71.95 72.36 69.98 72.44 72.27 71.96 71.62 64.96 64.89 66.13 68.27 75.28 75.81 75.62 75.86 76.32 76.36 76.65 76.88
68.09 68.57 69.89 69.11 69.37 71.60 71.17 71.57 71.56 71.22 70.41 70.60 70.87 71.28 69.36 65.60 67.46 69.91 71.49 70.04 70.32 70.45 70.76 71.29 70.60 70.15 70.69 69.82 70.41 68.69 67.40 65.58 66.57 67.68 67.72 73.64 76.00 76.25 76.00 76.06 76.61 76.75 77.26
68.80 69.50 70.40 69.30 71.15 71.21 70.23 70.36 70.53 70.94 70.12 67.72 67.96 68.05 71.31 70.03 70.53 71.46 70.35 70.91 70.64 69.97 69.87 69.68 69.97 70.44 68.92 69.27 69.59 68.94 67.25 67.31 67.19 68.01 69.40 69.19 76.01 76.57 76.83 76.85 77.62 78.28 77.72
69.70 70.59 71.04 70.61 70.15 71.23 69.59 69.76 69.70 70.02 71.33 69.35 68.53 70.17 71.36 71.67 69.38 69.99 71.29 70.38 70.66 73.59 73.75 72.48 72.13 71.71 70.13 70.59 69.15 70.93 70.84 71.19 70.52 70.12 70.57 70.71 71.72 74.31 74.53 76.23 77.59 77.67 78.24
70.20 69.75 70.77 71.41 69.32 69.54 70.01 68.59 68.75 70.06 70.18 69.49 69.63 70.74 69.36 71.99 69.94 70.72 69.50 69.64 73.61 71.64 72.41 72.78 71.60 70.39 70.18 69.08 68.70 70.00 71.14 71.58 71.90 72.24 72.44 71.93 71.60 70.57 71.77 73.89 76.03 77.73 77.26
69.94 68.69 68.72 68.77 68.81 68.91 68.18 69.22 70.13 70.90 69.84 66.41 67.97 69.52 71.75 70.91 71.13 69.69 67.82 70.49 72.32 71.36 70.02 72.11 72.10 71.86 69.44 69.33 69.73 70.00 70.42 69.76 69.58 72.46 71.95 70.55 69.22 68.44 70.46 72.29 73.40 73.38 76.08
69.74 69.40 69.40 68.40 68.42 69.49 71.41 70.30 69.91 69.86 69.86 70.19 70.59 70.99 70.31 68.71 67.86 66.36 71.28 71.18 71.66 72.32 72.58 71.33 72.04 73.18 72.54 71.18 72.19 69.64 68.10 68.34 69.50 69.77 70.82 67.71 68.29 67.67 69.21 70.90 71.11 71.36 74.25
69.87 69.01 68.52 69.15 68.24 69.59 67.53 67.62 67.84 68.99 70.46 70.33 71.17 71.26 68.71 66.55 68.15 71.02 71.42 69.06 71.47 70.52 71.82 72.96 73.24 72.94 71.77 70.93 68.78 68.28 67.00 67.24 68.28 70.19 69.47 64.92 66.55 66.35 67.75 70.68 70.31 70.74 72.25
68.91 69.13 69.77 69.57 68.36 69.49 70.09 69.28 69.81 70.56 71.81 70.14 71.35 71.83 69.68 68.23 68.66 71.36 72.16 70.99 67.81 69.31 68.64 71.75 73.05 72.49 71.80 70.49 68.59 65.96 62.78 65.32 66.56 68.55 68.67 66.30 66.81 66.75 67.67 70.11 70.26 70.15 70.59
68.52 69.25 69.83 69.44 69.96 70.44 70.42 70.51 70.53 70.70 69.62 68.90 69.76 69.97 70.87 72.30 72.62 71.90 73.09 69.92 63.68 66.55 66.12 71.60 73.16 72.59 67.92 68.93 66.60 65.31 61.65 59.16 63.41 65.98 67.21 67.54 66.36 67.06 67.72 69.01 69.44 70.48 69.34
69.08 70.28 69.69 70.18 70.37 70.23 70.92 69.46 68.22 67.44 65.98 67.03 68.24 70.42 70.32 71.77 69.83 71.45 73.04 70.30 67.18 69.05 70.90 72.86 74.45 71.41 66.35 66.04 67.45 68.82 64.77 63.07 59.69 59.15 65.71 66.33 67.23 66.75 68.02 69.05 69.46 69.19 68.99
70.42 70.23 70.08 69.87 69.64 69.98 70.61 70.45 67.64 67.55 67.70 69.65 69.58 70.52 69.83 71.19 71.91 71.85 71.94 72.44 72.08 70.68 70.91 72.73 72.59 71.20 65.58 64.08 64.68 67.16 66.36 65.75 64.08 61.79 59.73 61.61 64.75 67.34 68.33 68.75 68.04 68.01 68.54
69.87 70.27 69.86 69.68 69.35 70.30 70.88 70.77 69.97 68.65 69.16 69.09 68.52 69.48 69.16 69.39 70.78 71.42 72.05 72.27 72.07 69.00 69.04 72.81 72.29 72.45 64.78 66.42 67.72 65.13 67.76 66.74 65.62 63.26 62.09 62.58 62.86 65.18 67.78 68.39 67.72 68.19 68.94

GFSSE_sfc_wetblb_135.txt.gz
Wetbulb
69.95 72.29 74.68 74.48 74.35 74.12 73.50 74.37 75.03 75.25 74.93 75.38 74.47 76.17 76.45 76.10 76.47 76.64 76.61 76.61 76.55 76.49 76.37 76.43 76.51 77.05 77.25 76.83 76.56 76.40 76.37 76.31 76.35 76.23 75.83 75.71 75.63 75.62 74.82 74.57 74.53 72.91 74.23
71.11 72.42 74.53 74.68 74.56 74.24 74.04 74.11 74.76 75.33 75.84 75.11 76.10 76.73 76.72 76.63 76.23 76.63 76.75 76.80 76.61 76.34 75.97 76.02 76.59 76.58 76.45 76.58 76.54 76.52 76.31 76.25 76.53 76.33 76.30 76.24 75.80 75.94 75.59 75.42 75.53 74.35 75.03
70.98 72.08 73.42 75.37 74.84 74.64 74.20 74.17 75.08 74.90 75.55 76.07 75.74 76.21 76.12 76.61 76.82 75.86 76.59 76.87 76.50 76.31 75.64 76.13 76.35 76.47 76.10 76.24 76.29 76.30 76.45 76.47 76.16 76.22 75.97 72.89 73.85 75.64 75.42 75.40 75.49 75.24 75.04
71.42 71.09 72.46 75.98 75.43 74.72 74.66 74.83 75.16 75.10 75.58 76.36 76.24 76.48 76.80 76.78 76.72 76.91 76.59 75.93 76.02 76.21 76.30 76.68 76.46 76.11 75.91 75.97 75.82 75.74 75.35 76.26 76.04 75.65 72.71 72.82 74.20 75.47 75.23 74.99 75.03 75.48 75.25
71.29 71.74 72.21 75.30 75.47 75.16 74.96 75.15 75.72 76.14 76.05 76.63 76.33 76.99 76.80 76.62 76.56 76.74 75.64 74.98 74.59 74.67 75.33 75.69 75.62 75.36 75.58 75.46 75.21 75.58 76.62 76.10 74.82 73.07 71.05 70.65 70.54 74.70 75.33 74.85 75.03 74.42 74.01
71.60 71.71 74.68 75.15 75.51 75.40 75.52 75.60 75.87 76.11 76.57 76.53 76.80 76.97 76.98 76.47 76.58 76.35 76.64 76.85 76.32 75.93 75.06 74.34 74.18 74.65 74.54 74.45 74.43 75.06 75.78 76.29 74.35 71.79 71.41 71.54 69.63 73.32 73.59 74.35 74.78 74.96 74.93
71.66 72.73 74.00 76.74 76.24 76.24 76.11 76.09 76.39 76.51 77.00 76.95 76.93 77.04 76.55 76.66 76.21 76.08 76.10 76.02 75.94 75.72 75.14 74.67 73.91 73.55 73.36 73.62 74.28 75.39 75.51 74.01 69.60 69.77 69.83 69.74 70.61 73.49 72.77 72.66 72.43 72.26 72.54
72.71 73.30 73.90 76.09 76.31 76.78 76.92 76.58 76.66 76.88 76.69 76.78 76.98 76.85 76.74 76.40 76.43 76.30 76.06 75.78 75.89 75.31 74.90 74.59 74.07 73.93 73.95 74.17 75.67 77.70 75.67 73.76 71.64 70.35 70.16 70.10 73.38 73.03 72.69 72.52 72.35 72.31 72.28
73.47 73.52 73.30 73.51 75.29 76.54 76.90 76.77 76.43 76.93 76.33 76.28 76.26 76.09 76.56 76.62 76.38 76.22 76.06 76.11 76.06 76.00 75.74 75.33 75.13 75.05 75.03 75.36 75.64 76.37 75.73 75.23 71.08 71.29 72.43 71.53 74.50 73.00 72.93 72.51 72.53 72.56 72.67
71.72 72.30 72.25 72.50 73.00 73.19 72.80 76.99 76.70 76.78 76.43 76.64 76.48 76.51 76.33 76.33 76.47 76.61 76.73 76.38 75.70 75.70 75.48 75.47 75.74 75.71 75.88 76.07 76.02 76.02 75.34 74.31 68.09 68.59 69.43 70.89 75.07 72.58 72.85 73.35 73.27 73.49 73.69
70.51 69.83 70.50 71.53 71.50 72.43 73.32 75.12 76.90 77.34 77.15 76.70 75.98 76.27 74.58 72.34 72.58 73.89 75.41 76.38 76.31 76.31 76.31 76.14 76.22 76.58 76.66 75.91 75.75 76.08 75.81 69.43 68.70 70.53 69.98 72.31 73.34 72.66 72.66 72.94 73.32 73.74 74.10
67.56 68.50 69.67 70.69 70.86 72.44 74.85 73.78 73.44 74.54 74.04 73.30 72.52 72.54 71.15 71.50 71.77 74.56 74.63 73.98 74.40 75.38 77.17 77.14 77.31 77.25 76.70 73.87 73.31 74.81 72.44 72.78 68.80 69.69 70.53 73.95 74.41 74.38 73.87 74.06 74.62 74.90 74.87
68.05 69.28 70.22 69.96 70.61 70.93 72.90 72.63 72.90 71.97 71.47 69.34 69.51 68.92 70.14 71.32 69.96 70.62 68.88 67.00 67.89 72.21 71.52 73.12 72.71 73.67 73.47 72.82 72.43 72.31 72.13 67.16 65.51 66.71 68.93 74.04 74.23 74.44 75.46 75.91 76.27 76.44 76.43
68.49 69.70 70.53 69.99 70.07 69.16 71.71 71.43 71.51 72.00 71.39 66.61 65.99 69.88 67.57 66.97 68.33 68.58 69.57 70.29 70.05 70.57 70.30 70.57 71.18 71.46 71.29 70.17 71.07 71.17 70.98 65.03 64.85 65.59 66.92 72.41 75.44 74.68 75.64 76.43 77.14 76.87 77.03
68.34 68.06 69.90 69.21 68.99 69.37 70.69 70.84 71.09 70.91 70.81 70.91 71.19 70.91 65.52 65.62 66.35 69.04 70.10 69.46 70.02 69.73 69.62 69.81 70.08 69.92 69.16 69.58 69.73 71.06 69.70 66.77 66.32 67.82 67.65 72.62 75.19 76.05 75.91 76.33 76.86 77.72 77.38
68.36 66.46 69.71 68.65 68.12 70.31 70.13 70.64 70.40 70.84 69.79 69.04 69.07 69.58 67.21 68.95 69.72 70.18 70.24 70.51 70.28 70.08 69.58 69.11 69.51 69.83 68.33 68.50 68.37 67.21 67.19 68.12 68.60 69.07 70.09 71.37 74.34 74.50 75.22 76.32 76.81 78.00 78.48
67.83 67.24 68.96 68.19 70.36 70.35 69.67 69.64 69.42 69.81 69.91 66.42 66.34 69.87 70.39 70.36 69.85 69.68 70.06 70.04 71.95 72.86 72.99 71.84 71.05 70.87 69.41 69.92 69.32 70.74 71.54 72.28 72.63 72.17 72.21 71.83 71.21 73.67 74.79 75.62 75.79 75.95 77.42
68.19 68.70 69.39 71.24 69.88 69.76 68.82 68.58 69.09 69.81 69.28 67.85 67.22 69.57 69.26 71.34 69.32 69.57 68.54 69.67 71.98 70.54 71.34 71.27 70.99 69.41 70.04 69.04 68.73 70.15 71.00 71.99 71.77 71.47 72.02 70.67 69.72 70.45 72.08 74.37 74.72 75.12 77.06
69.04 69.21 69.10 68.11 68.16 68.18 68.08 68.12 67.85 69.68 69.02 67.40 68.28 66.95 69.10 70.16 70.91 68.43 68.51 71.17 71.71 71.40 71.66 71.90 71.41 71.00 68.66 68.85 69.71 68.66 69.00 69.21 71.02 72.36 70.74 69.98 68.66 69.32 70.50 71.99 73.15 74.34 76.78
69.21 69.24 68.02 67.15 67.69 67.90 68.68 69.50 68.35 69.22 68.36 66.71 68.22 68.57 70.23 67.81 69.25 66.19 70.49 69.85 71.65 71.85 71.90 72.00 71.84 71.78 70.41 68.90 68.20 66.94 67.29 68.84 69.95 70.02 70.23 69.33 68.44 68.12 69.74 70.05 69.91 70.73 74.09
68.38 67.35 66.80 66.67 67.29 68.91 66.60 68.20 67.09 67.79 68.22 67.72 69.62 70.94 69.49 66.98 67.53 71.25 69.22 70.82 69.37 69.39 70.08 72.84 72.80 70.73 69.33 67.42 65.53 65.28 66.08 67.34 67.63 68.64 69.87 66.95 64.77 67.22 68.92 69.87 70.03 69.87 69.81
67.66 67.51 66.95 67.41 67.42 68.50 67.51 68.07 68.47 69.72 69.63 69.27 69.94 70.20 67.77 66.16 68.38 71.66 70.60 67.89 66.37 68.23 70.88 72.49 72.56 70.67 67.81 67.47 67.36 64.89 62.59 64.95 65.75 67.30 68.01 67.41 67.00 68.18 68.20 69.37 69.43 69.55 68.47
67.83 67.49 67.87 67.85 67.59 69.23 69.21 71.04 69.54 69.26 69.06 68.83 69.54 69.64 70.32 70.55 70.41 72.19 71.59 65.79 66.47 67.33 69.25 72.07 71.06 68.73 66.53 67.14 65.73 65.06 60.11 59.96 62.59 64.86 66.24 66.67 67.09 66.80 66.95 68.84 68.99 69.66 68.61
68.30 68.74 68.45 68.53 68.41 69.52 69.91 69.15 67.74 67.09 66.09 66.89 68.28 68.86 69.05 71.48 70.24 71.69 71.99 68.85 69.27 70.41 70.81 72.88 71.65 67.93 67.20 65.24 66.20 68.06 64.11 63.15 59.38 58.72 63.23 65.13 66.13 66.34 66.96 68.21 68.26 68.56 68.45
68.71 68.87 69.21 68.64 68.64 69.18 70.01 68.78 66.93 66.39 66.50 67.32 68.28 69.10 67.77 70.14 70.43 70.48 72.02 71.32 70.74 69.94 70.65 71.74 69.38 64.99 64.80 64.16 63.27 65.68 65.53 65.06 63.24 60.30 58.65 60.38 63.73 65.82 67.07 67.45 68.06 67.45 68.46
69.08 69.21 68.96 68.47 68.44 68.62 69.54 69.42 67.32 67.20 67.45 68.21 67.13 68.18 68.11 68.59 70.18 70.77 71.05 71.31 70.72 68.33 70.57 71.96 70.92 66.21 67.13 66.70 65.95 64.98 66.20 65.53 64.14 62.25 60.33 61.16 61.97 64.40 66.24 67.56 67.45 67.47 67.81

GFSSE_sfc_wetblb_138.txt.gz
Wetbulb
69.32 72.15 73.62 73.76 73.10 73.57 74.48 74.70 74.56 74.82 75.05 74.99 74.62 75.30 75.94 76.43 76.27 76.55 76.34 75.73 75.87 76.13 76.43 76.77 76.40 76.31 76.72 76.77 76.65 76.24 76.13 76.31 76.33 76.18 75.91 75.82 75.49 74.49 74.35 74.38 74.31 73.46 74.94
70.84 72.36 73.92 73.69 73.64 73.91 74.11 74.27 74.28 73.68 73.70 74.92 75.84 76.19 75.90 76.40 76.16 76.15 76.53 76.43 76.98 76.02 76.24 76.14 76.44 76.73 76.47 76.29 76.33 76.21 76.03 76.04 76.42 76.47 76.10 75.87 75.68 75.77 75.50 75.58 74.98 74.15 74.64
70.63 72.02 72.93 74.26 73.34 73.92 73.92 72.66 72.55 74.09 73.76 74.74 75.71 76.19 76.31 76.77 76.60 76.52 76.56 76.16 76.66 76.31 76.35 76.36 76.38 76.33 76.42 76.48 76.47 76.42 76.34 76.13 76.21 76.08 75.78 74.52 74.72 75.67 75.69 75.42 75.13 74.99 74.94
70.83 71.23 72.72 75.13 74.69 74.58 74.77 72.82 71.67 72.02 74.12 73.95 74.66 76.02 76.30 76.87 76.61 76.53 76.01 76.16 76.64 76.38 76.59 76.33 76.22 76.06 76.10 76.24 76.09 75.68 76.14 76.11 75.79 75.36 73.55 73.77 74.45 75.74 75.79 75.10 74.92 74.92 74.81
70.42 71.21 72.46 74.76 74.92 74.62 75.09 72.41 73.72 74.83 75.14 75.73 75.45 76.30 76.61 76.53 76.38 75.09 75.25 74.73 75.20 75.84 76.14 76.04 75.76 75.53 75.41 75.14 75.16 76.07 76.19 75.65 75.25 73.43 72.34 72.17 73.13 75.21 75.18 74.87 74.63 73.95 74.15
70.83 71.57 74.35 75.03 74.85 74.85 74.90 75.07 75.74 75.77 76.03 76.47 76.43 76.48 76.61 76.69 76.27 76.33 76.13 76.31 75.64 75.23 74.84 74.67 75.03 74.51 74.17 74.06 74.84 75.69 76.55 75.77 74.06 72.71 72.32 72.60 71.79 73.81 74.31 74.60 74.68 75.08 74.70
70.66 72.39 73.34 75.43 75.49 75.42 75.64 75.20 76.02 76.00 76.32 76.42 76.22 76.79 76.76 76.45 76.37 76.35 76.29 75.89 75.47 75.20 75.14 74.84 73.95 73.56 73.61 74.45 76.36 75.09 75.26 74.75 71.75 71.53 71.58 71.58 72.50 73.54 72.90 72.68 72.40 72.15 72.38
72.02 73.12 73.68 75.05 76.07 75.87 76.19 75.94 76.17 76.18 76.15 77.15 76.51 76.50 76.67 76.29 76.59 76.55 76.16 75.92 75.73 74.78 74.39 74.01 73.34 73.62 74.23 74.92 76.96 76.42 74.23 72.88 71.12 70.67 70.96 71.53 73.38 72.68 72.58 72.27 72.32 72.37 72.34
72.90 72.91 73.01 73.48 75.16 75.99 76.19 76.46 76.77 76.27 75.92 76.48 76.69 76.54 76.85 76.73 76.46 76.29 76.29 76.08 75.67 75.37 74.87 74.51 74.59 75.05 75.43 75.95 75.72 76.07 74.92 75.34 72.30 72.49 72.87 72.35 73.35 72.93 72.87 72.59 72.56 72.75 72.93
72.05 72.65 72.41 72.88 72.99 73.58 74.83 76.27 76.60 76.42 76.45 76.91 76.81 76.76 76.81 76.65 76.87 76.55 76.20 76.82 76.08 76.00 75.53 75.31 75.34 75.25 75.61 75.94 76.07 76.10 75.09 74.75 70.85 71.23 70.88 72.59 74.16 73.36 72.83 72.95 72.93 73.15 73.49
71.19 70.39 71.15 72.32 72.59 72.96 73.72 75.39 76.36 76.77 76.43 76.55 76.15 76.80 74.50 73.00 73.64 73.81 76.17 76.70 76.93 76.86 76.48 76.53 76.75 77.04 77.40 76.20 75.65 76.08 75.27 71.07 69.95 71.49 71.37 71.24 73.32 73.56 74.20 74.31 74.16 74.58 74.77
68.87 69.54 70.35 71.53 72.09 72.82 75.31 73.75 73.89 74.80 73.93 73.93 73.53 72.33 72.00 72.47 73.84 74.41 73.28 72.49 73.36 74.94 75.09 76.33 76.60 76.90 75.88 74.32 74.00 74.51 73.75 73.83 72.10 71.19 71.40 72.94 74.58 74.41 75.42 76.09 76.29 76.20 76.01
68.17 69.15 70.25 70.64 71.43 71.79 72.58 73.27 72.72 72.20 71.79 69.92 70.24 70.51 71.27 71.31 70.77 71.10 70.10 70.72 70.93 73.24 71.62 72.34 73.06 73.32 74.04 73.82 72.93 72.92 73.27 69.69 68.55 68.06 68.59 72.72 73.62 74.46 75.11 75.81 76.72 77.48 77.25
67.47 68.57 69.89 70.36 70.59 70.52 72.12 72.15 71.78 71.56 70.44 66.95 67.77 70.66 69.60 68.73 68.98 69.85 70.78 70.98 71.54 71.94 71.62 72.04 72.40 72.72 72.23 71.40 71.44 72.45 72.09 67.67 67.35 68.40 69.71 71.90 73.54 74.91 75.56 75.98 76.44 77.24 77.64
67.14 68.56 69.60 69.93 69.76 70.07 71.42 71.28 71.66 71.83 71.64 70.93 71.01 71.03 66.86 67.86 68.52 70.19 71.26 71.95 72.05 72.36 71.81 71.90 71.99 72.12 71.09 70.44 70.39 71.81 69.99 68.29 68.28 70.08 70.69 72.77 74.74 75.03 75.23 76.01 76.94 77.47 77.92
68.21 68.20 69.59 69.14 69.40 69.76 70.43 71.04 71.27 71.50 71.07 71.07 71.24 70.88 68.88 70.17 71.50 71.51 71.53 72.25 72.88 73.04 73.19 72.04 72.91 71.57 70.13 71.13 71.25 70.45 70.40 69.92 69.87 70.64 71.98 75.02 74.13 74.31 75.35 75.72 76.33 77.09 78.15
68.28 68.11 69.06 68.99 68.56 69.49 69.83 70.81 70.63 71.53 71.13 68.82 69.10 70.12 71.42 71.19 71.21 71.68 70.98 71.45 72.73 72.38 73.56 74.26 73.31 72.22 70.96 71.58 71.97 72.59 73.09 73.36 73.70 72.22 72.87 72.83 73.56 74.22 75.22 75.85 76.00 77.26 78.66
67.81 66.45 68.90 70.83 68.64 70.02 69.44 69.96 70.43 70.73 70.29 67.59 67.96 71.01 71.74 71.52 71.64 71.13 70.56 72.19 73.07 73.09 73.46 73.75 73.23 71.31 70.44 70.72 71.09 71.83 72.33 72.88 72.62 73.04 72.82 71.16 71.23 71.49 72.27 74.78 76.01 77.44 78.24
67.55 67.60 68.48 69.48 69.25 69.66 69.55 69.17 69.68 70.36 69.89 69.51 69.00 68.62 71.98 71.55 71.41 69.81 71.67 72.53 73.78 73.77 73.71 73.33 72.92 71.62 70.64 70.46 69.87 69.99 70.55 71.29 71.80 72.47 71.11 70.77 69.81 69.80 71.48 71.90 73.34 76.74 77.69
68.67 68.71 69.15 68.12 68.48 68.71 68.49 69.06 68.86 70.10 69.85 68.49 69.69 68.49 71.36 69.76 70.52 71.90 71.48 72.02 72.67 73.36 74.01 73.87 72.05 70.72 69.90 69.35 68.81 68.40 69.28 70.26 70.91 71.07 70.82 70.46 69.71 69.33 70.00 71.27 71.83 72.44 74.98
68.58 68.26 67.87 66.85 67.82 68.05 67.93 68.10 67.96 68.39 69.21 68.76 70.35 71.90 71.48 69.40 70.82 71.78 72.36 70.88 71.67 72.36 73.53 74.50 72.96 69.79 68.22 69.05 68.44 68.48 69.07 69.31 69.59 69.85 70.13 68.45 68.59 69.40 70.04 71.83 71.67 71.35 71.39
67.51 67.83 67.37 66.81 67.86 68.77 67.93 68.41 68.64 69.72 70.06 69.23 71.07 71.88 70.60 68.16 71.04 73.33 72.41 68.83 70.66 72.58 73.60 73.64 73.55 69.96 69.05 69.35 69.07 67.27 66.16 68.85 68.80 68.91 69.57 68.92 69.27 69.65 69.14 70.12 70.57 71.13 70.64
67.26 67.49 67.02 67.00 67.90 69.03 69.02 70.17 69.64 70.13 70.06 69.95 70.94 71.47 71.48 70.25 70.44 73.73 71.30 70.13 71.07 72.28 73.04 73.07 72.07 70.40 68.61 69.25 68.22 68.70 65.24 64.34 65.24 67.78 68.05 68.61 68.91 68.97 68.70 70.31 70.91 70.86 71.11
67.54 68.39 67.60 67.99 67.79 69.38 69.86 69.78 69.24 68.66 67.90 69.02 69.89 70.76 71.47 72.66 72.84 72.14 72.79 71.57 72.72 72.98 73.92 74.44 71.97 71.49 70.28 68.13 68.60 67.89 66.53 65.87 63.69 62.38 67.21 67.45 67.42 67.72 68.86 69.64 70.61 70.91 71.73
68.27 68.53 68.09 68.22 68.13 69.84 69.78 69.43 68.49 67.93 67.92 68.67 69.50 70.39 70.53 72.08 72.17 71.68 73.48 72.86 72.96 72.79 73.83 74.01 69.58 69.10 68.55 67.88 67.69 69.00 68.56 66.87 65.93 64.67 64.14 63.94 67.35 68.89 69.67 70.08 71.59 71.80 71.01
68.41 68.88 68.81 68.31 68.20 69.29 69.89 69.23 68.52 68.16 67.92 68.94 68.63 69.38 69.75 70.36 71.79 72.39 72.94 73.46 73.32 71.95 73.42 73.88 71.39 70.89 70.71 69.44 68.42 67.96 69.35 69.15 68.43 66.77 65.90 65.66 65.50 67.76 69.26 71.30 71.10 71.16 71.18

GFSSE_sfc_wetblb_141.txt.gz
Wetbulb
71.37 72.66 73.71 73.43 73.59 74.31 74.52 74.61 74.82 75.33 75.30 75.07 74.52 73.09 75.62 76.26 76.51 76.48 76.22 76.59 76.71 76.71 76.84 76.89 76.75 76.76 76.62 76.50 76.54 76.20 75.94 76.30 76.61 76.52 76.03 75.92 75.05 74.80 74.95 74.56 73.92 75.32 75.90
72.01 72.43 73.70 73.15 73.06 73.45 74.41 74.46 74.16 74.61 74.58 75.11 73.76 73.24 75.58 76.22 76.06 76.14 76.64 76.77 76.50 76.23 76.80 76.63 76.55 76.54 76.58 76.74 76.43 76.30 76.47 76.31 76.54 76.42 76.44 76.46 76.13 75.87 76.03 75.80 75.28 75.10 74.63
71.64 72.27 72.44 73.25 72.88 73.19 72.95 73.97 74.33 74.35 74.00 75.11 75.40 75.69 76.17 76.61 76.10 76.05 76.53 76.75 77.11 76.48 76.11 76.25 76.61 76.66 76.77 76.81 76.63 76.22 76.21 76.53 76.17 75.99 75.57 76.08 76.20 76.10 75.91 75.67 75.47 75.55 75.28
72.64 72.99 71.83 74.12 73.50 72.78 72.34 72.65 73.47 73.75 72.71 73.07 74.84 75.83 76.50 76.35 76.37 76.22 76.51 76.64 76.65 76.34 76.00 76.36 76.42 76.19 76.36 76.02 76.08 76.35 76.24 76.02 75.73 75.14 75.85 75.24 75.14 76.17 75.71 75.40 75.47 75.22 75.07
72.98 73.73 73.60 74.94 73.09 72.67 71.99 71.83 72.41 72.80 72.76 73.66 75.00 76.06 76.49 76.14 75.77 75.21 75.49 75.70 76.29 76.15 76.12 75.68 75.87 75.88 75.38 75.68 76.30 76.39 76.38 75.45 75.38 74.61 74.18 76.06 76.16 75.99 75.50 75.37 74.62 74.27 74.22
72.80 73.67 74.69 75.23 73.47 73.45 71.94 71.60 71.66 71.99 73.25 74.26 74.49 75.94 76.48 76.61 76.58 76.34 75.98 75.84 75.35 74.94 74.94 75.41 75.30 74.77 75.02 75.93 75.73 76.63 76.26 75.14 73.28 74.29 73.30 73.19 73.70 74.14 74.61 74.76 75.19 75.34 74.92
72.74 73.76 74.49 75.36 74.94 73.45 73.32 73.47 73.48 73.93 73.54 75.02 76.38 76.65 76.56 76.48 76.61 76.24 75.71 75.41 75.16 75.05 75.19 75.13 74.82 74.80 75.68 77.22 75.89 75.23 74.99 74.37 73.32 73.29 72.55 72.57 73.14 73.40 73.25 73.05 72.72 72.28 72.08
72.86 74.57 74.81 75.11 75.66 75.30 74.07 74.02 74.66 74.77 75.76 76.34 76.76 76.75 76.57 77.07 76.42 76.18 75.82 75.49 74.68 74.85 74.85 74.68 74.71 75.24 75.82 76.08 75.79 74.71 73.83 73.22 72.02 71.89 72.14 72.92 73.45 73.21 72.97 72.70 72.53 72.55 72.44
73.95 74.60 75.40 75.89 76.38 75.88 76.09 75.44 75.33 75.73 76.54 76.92 76.69 76.59 76.66 76.59 76.53 76.45 76.13 75.80 75.54 75.12 74.81 75.32 75.24 75.43 75.62 75.57 75.60 75.38 74.90 75.01 73.40 73.40 73.59 73.96 73.74 73.61 73.41 72.97 72.99 73.50 73.66
73.86 74.40 75.26 76.39 76.80 76.94 76.27 76.28 76.21 76.13 76.69 77.01 76.86 76.82 76.75 77.14 76.74 76.73 76.49 76.73 76.35 75.96 75.93 75.82 75.21 74.60 74.57 75.02 75.66 75.85 74.96 74.58 72.95 72.97 72.87 73.57 73.32 73.37 73.03 73.06 73.39 73.90 74.25
73.03 74.24 75.07 75.24 75.71 76.91 76.77 76.60 76.90 77.04 77.03 76.83 77.05 76.16 75.77 75.96 75.86 75.83 75.52 75.36 76.39 76.62 76.81 76.38 76.10 76.21 76.45 75.74 75.58 76.33 75.14 75.66 74.64 73.76 73.54 71.53 72.79 73.75 74.95 75.04 75.43 75.98 76.06
71.74 73.33 75.01 74.91 74.65 76.24 75.76 77.25 77.21 76.55 76.69 76.76 76.41 75.96 76.07 76.07 75.68 73.99 72.56 73.55 74.66 74.99 74.49 75.04 75.32 75.85 75.82 76.96 77.30 76.03 75.76 75.10 74.66 73.30 73.30 71.96 74.43 74.08 75.01 75.81 76.43 77.07 77.15
71.68 72.58 74.21 74.87 75.56 75.97 76.12 75.93 76.24 75.68 75.01 74.92 74.85 75.57 75.43 75.41 74.79 74.67 75.12 75.59 76.25 74.84 76.49 76.26 76.69 76.62 75.50 76.67 75.90 75.35 73.35 72.78 72.82 72.96 72.27 71.75 73.09 74.34 74.87 75.52 76.36 76.97 77.63
71.64 72.11 73.33 74.54 75.29 75.60 76.13 74.79 74.78 74.22 73.77 73.28 74.30 74.92 75.10 74.23 74.59 74.81 75.49 76.10 76.41 76.32 76.35 76.64 76.59 76.70 75.47 75.16 75.51 75.02 73.79 72.71 74.01 74.56 74.25 72.52 73.44 75.37 75.82 76.29 77.14 77.86 78.33
70.50 71.52 72.47 74.04 74.84 75.15 75.38 75.13 74.95 74.28 74.04 73.61 75.58 74.02 73.83 73.42 74.82 75.57 76.32 76.78 76.98 77.66 76.16 75.97 75.69 74.77 74.21 73.62 75.82 75.25 73.63 72.80 72.16 73.90 75.57 73.60 75.24 75.60 76.17 76.95 77.35 77.71 78.61
69.41 69.94 71.82 73.08 74.23 74.46 74.98 75.59 75.60 76.63 75.98 76.04 75.58 74.24 74.30 75.00 75.95 75.82 76.25 76.44 76.97 77.50 78.03 77.21 76.68 75.37 75.58 75.28 73.88 74.16 74.16 74.57 74.49 74.42 73.81 76.35 75.10 75.54 76.13 76.72 76.90 77.73 78.44
69.35 70.28 71.30 72.40 73.53 73.80 74.52 75.32 76.23 76.21 75.55 74.67 74.55 74.93 75.27 75.41 76.24 75.87 75.99 76.55 76.73 77.57 78.27 78.33 76.91 75.85 75.65 75.80 75.88 76.78 77.17 76.73 76.73 75.71 75.53 74.59 74.80 74.60 75.02 76.37 77.17 78.21 77.99
70.98 71.53 72.45 72.05 72.63 73.28 74.12 75.21 75.90 76.49 75.97 73.34 73.20 75.57 75.07 75.60 75.75 76.00 76.26 76.56 77.86 78.44 78.55 78.19 76.01 74.61 75.13 75.88 76.13 76.21 75.91 76.01 75.82 75.98 73.69 72.92 72.34 74.49 75.21 74.36 75.49 77.85 77.64
72.30 72.51 72.46 73.16 72.60 73.25 74.42 74.69 75.43 75.39 75.04 73.34 74.24 74.34 75.38 75.24 75.24 76.18 75.93 76.82 78.39 78.35 77.81 77.68 76.27 75.66 75.43 75.69 75.20 75.75 76.01 76.27 75.07 74.23 72.70 72.32 72.55 72.94 74.15 73.69 73.15 74.94 76.36
72.15 72.61 72.67 73.24 73.53 74.47 74.18 74.15 74.59 74.99 74.99 74.23 73.91 73.49 75.32 74.74 74.37 76.17 76.37 76.79 77.55 78.18 77.98 76.93 76.55 75.68 75.93 75.27 73.61 74.08 75.00 75.91 76.22 75.40 74.11 73.12 70.96 70.21 73.28 74.08 74.41 74.06 74.18
72.02 72.24 72.05 72.76 73.71 73.64 72.70 72.18 72.87 75.73 74.02 73.63 75.01 74.78 75.10 73.57 76.32 76.69 76.27 75.91 77.27 77.78 78.05 76.99 75.59 74.66 73.62 74.73 72.95 74.00 73.94 74.13 74.30 73.98 73.01 72.14 71.08 70.91 74.01 73.39 74.44 73.87 75.31
71.12 71.93 72.26 72.80 72.97 73.56 73.61 73.72 74.07 74.32 74.46 74.70 75.05 76.32 75.23 72.42 75.93 77.40 75.43 75.11 76.52 77.61 77.33 78.19 76.57 74.66 74.07 74.04 72.89 72.91 70.96 72.85 72.75 72.77 72.22 72.02 72.85 73.39 72.79 72.86 73.35 74.08 75.41
70.93 71.55 72.31 73.02 73.08 73.79 74.15 74.18 74.07 74.57 74.53 73.16 73.64 75.68 75.52 73.11 74.81 77.41 75.05 76.15 76.94 78.02 76.35 76.04 76.50 74.59 73.83 72.79 72.85 72.12 69.08 66.87 69.63 71.56 71.20 72.58 72.17 73.42 73.67 74.11 74.34 74.99 75.28
71.44 72.31 72.92 73.31 73.04 73.76 74.40 74.49 74.52 72.62 71.87 74.15 73.60 75.55 75.96 75.86 76.01 76.73 76.95 76.77 77.63 77.79 77.97 76.39 74.54 75.17 73.89 71.78 72.56 71.54 71.29 70.26 67.51 67.66 70.44 71.62 72.07 72.75 74.19 75.14 75.27 75.16 75.30
71.92 72.28 72.62 73.22 73.00 73.81 74.38 75.34 74.04 73.66 75.17 74.32 73.92 75.40 75.50 76.79 76.52 74.81 77.07 77.07 77.29 77.26 78.53 77.21 73.78 74.35 72.88 71.95 71.34 71.89 72.81 71.48 71.64 69.83 67.35 68.85 71.99 73.34 73.94 74.56 75.07 75.96 76.13
71.77 72.07 72.13 72.58 72.62 73.99 74.18 74.66 75.15 74.71 73.73 73.14 73.41 73.55 73.90 74.86 75.60 76.13 75.94 77.41 77.91 76.84 77.83 78.09 76.07 75.25 76.12 75.13 74.58 73.40 72.76 72.30 71.74 71.09 71.24 71.58 70.92 73.01 74.51 75.31 75.34 75.94 77.20